Dewpoint
73 73 75 75 74 74 73 73 73 73 73 73 72 71 71 71 71 71 71 71 71 71 71 71 71 71 72 72 72 72 72 72 72 72 72 72 72 72 72 72 72 71 71 71 72 72 71 71 70 71 70 70 71 71 71 71 71 71 71 70 69 69 69 69 69 68 67 67 67 67 67 67 67 67 66 65 65 65 66 67 67 65 65 65 65
73 74 74 74 74 74 74 73 73 73 73 73 72 71 71 71 71 71 71 71 71 71 71 71 71 71 72 72 72 72 72 72 72 72 72 72 72 72 72 72 72 72 72 71 71 71 71 71 71 71 71 71 70 71 71 71 71 71 70 70 70 70 69 69 68 68 67 66 66 65 66 64 64 65 66 66 66 67 66 67 66 65 65 64 63
74 74 74 74 74 74 74 73 73 73 73 73 72 71 71 71 71 70 70 70 70 70 71 71 71 72 72 72 72 72 72 72 72 72 72 72 72 72 72 71 71 71 71 71 71 71 71 70 71 71 71 71 71 71 72 72 71 71 70 69 69 69 69 68 68 68 67 67 66 65 64 65 65 65 65 65 65 65 65 65 64 63 60 63 63
73 74 74 73 74 74 73 73 73 73 73 73 72 72 71 71 71 70 70 70 70 70 71 71 72 72 72 72 72 72 72 72 72 72 72 72 72 72 71 71 71 71 71 71 71 70 70 71 71 71 71 71 71 71 71 70 70 70 70 68 68 68 67 67 67 66 65 65 65 66 66 61 62 64 64 65 64 64 62 62 62 63 63 63 64
73 73 73 73 73 73 73 73 73 73 73 73 72 72 72 71 71 70 70 70 71 71 71 71 72 72 72 72 72 72 72 72 72 72 72 72 72 72 71 71 71 71 71 71 71 71 71 71 71 71 71 72 71 71 71 71 71 70 69 69 68 67 66 66 66 66 66 66 66 66 63 61 60 61 61 63 63 63 63 64 65 65 65 65 65
73 73 73 73 73 73 73 73 72 72 73 73 72 72 71 71 71 70 70 70 71 71 71 71 72 73 73 72 72 72 72 72 72 72 72 72 72 71 71 72 72 71 72 71 71 71 71 71 70 71 72 71 71 71 70 70 70 70 70 69 69 68 68 65 65 65 65 65 65 63 61 62 63 64 65 65 64 66 66 65 63 64 65 66 66
73 73 73 73 73 73 73 73 73 73 73 72 72 72 72 71 71 71 70 70 70 71 71 71 72 72 72 72 72 72 72 72 72 72 72 71 71 71 71 71 71 71 71 71 70 70 71 70 71 71 71 71 71 71 69 69 68 68 68 69 68 69 69 68 64 65 64 64 62 64 64 66 66 63 65 64 64 64 64 65 66 66 64 64 64
72 72 72 72 72 73 73 73 73 73 73 72 72 72 72 71 71 70 71 70 70 70 71 71 72 72 72 72 72 72 72 72 72 72 72 72 71 71 71 72 71 71 71 71 71 71 71 71 71 71 71 71 70 70 68 68 68 68 69 68 69 68 68 69 68 64 65 64 64 66 67 67 67 67 66 66 67 68 68 66 64 62 63 64 64
72 72 72 72 72 73 73 73 73 73 73 72 72 72 71 71 71 70 70 70 70 70 71 71 72 72 72 72 73 72 72 72 72 72 72 71 71 71 71 71 71 71 71 71 71 70 70 71 71 71 70 70 69 68 68 68 69 69 68 68 68 68 69 69 68 66 65 66 66 66 67 67 67 67 68 69 68 67 66 65 64 62 64 67 67
71 72 72 72 72 73 73 73 73 73 72 72 72 72 71 71 71 70 70 70 70 70 71 71 72 72 72 72 72 72 72 72 72 71 71 71 71 71 71 71 71 71 71 71 71 71 71 71 70 70 69 69 69 69 68 69 69 69 68 68 69 69 70 70 67 67 65 66 67 67 68 67 66 67 68 68 68 67 65 64 66 63 66 67 67
72 72 72 72 72 73 73 73 73 72 72 72 72 71 71 71 70 70 70 70 70 70 71 72 72 72 72 72 72 72 72 72 71 71 72 72 72 72 71 71 71 71 71 71 71 71 70 69 69 69 69 69 69 68 69 68 68 68 68 69 69 70 69 68 67 66 66 66 66 66 68 68 65 66 68 68 67 65 65 64 64 64 63 64 64
71 72 72 72 73 73 73 73 72 72 72 72 71 71 71 70 70 70 69 69 69 70 72 72 72 72 72 72 72 72 72 72 72 72 71 71 71 71 71 71 71 71 71 70 69 69 69 69 69 69 69 69 69 69 69 68 68 68 69 69 69 69 69 68 66 65 65 65 65 65 65 65 65 66 68 67 66 65 64 63 64 64 62 62 63
71 71 72 72 72 73 73 73 72 72 72 71 71 71 71 70 70 70 69 70 70 70 71 72 72 72 72 72 72 72 72 72 71 71 71 71 71 70 70 70 71 70 70 69 69 69 69 68 69 69 69 69 69 69 68 68 68 68 69 69 68 68 68 67 65 65 65 65 65 64 64 64 65 66 67 67 66 65 64 64 63 62 65 65 64
71 71 72 71 72 73 73 72 72 72 71 71 71 71 70 70 70 70 70 70 70 71 72 72 72 72 72 72 72 72 71 71 71 71 70 70 70 70 70 70 70 70 70 70 69 69 69 69 69 69 69 69 69 68 68 68 68 68 69 70 68 68 68 67 67 65 65 65 65 64 64 65 65 66 66 66 66 65 64 63 61 64 63 63 63
71 71 71 71 72 72 73 72 72 72 71 71 71 71 70 70 70 70 70 69 70 71 71 71 72 72 72 72 72 72 71 71 71 71 70 70 70 70 70 70 70 70 69 70 69 69 69 69 69 69 69 69 69 68 68 68 68 68 69 70 68 67 67 65 65 65 65 65 64 64 63 64 67 67 65 65 65 65 65 63 62 62 63 63 64
71 71 71 71 71 71 71 72 71 71 71 71 71 70 70 70 70 69 70 70 71 71 71 72 72 72 72 72 72 72 71 71 71 71 70 70 70 70 70 70 70 69 69 69 70 70 69 69 69 69 69 69 68 68 68 67 68 68 69 70 68 67 67 66 65 64 63 63 63 63 62 65 67 65 65 65 64 63 62 62 62 62 64 63 63
71 71 70 70 70 70 71 71 71 71 71 70 70 70 70 70 70 70 70 70 71 71 71 71 72 72 72 72 72 72 71 71 70 71 70 70 70 70 70 70 70 70 69 70 70 69 70 69 69 68 69 68 68 68 68 67 68 68 70 69 67 67 67 66 63 62 62 64 64 63 62 62 64 64 64 64 63 63 63 64 63 62 64 63 64
70 70 70 70 69 70 70 70 70 70 69 70 70 69 69 69 70 70 70 70 70 70 71 71 72 72 72 71 71 71 70 70 70 70 70 70 70 70 69 70 69 69 69 70 70 69 69 69 68 68 68 68 68 68 67 67 68 69 69 69 68 67 67 65 62 63 63 65 62 64 64 67 66 64 63 62 63 63 61 62 63 63 64 64 64
70 70 70 69 69 69 69 69 69 69 68 68 68 69 70 69 70 70 70 70 70 71 71 71 71 71 71 71 71 71 71 71 70 70 70 70 70 70 70 69 69 69 69 69 69 69 69 69 69 68 68 68 68 67 67 68 68 69 68 68 67 67 66 65 63 63 63 62 61 61 62 66 66 63 63 63 63 63 64 64 65 65 64 64 63
69 69 69 69 69 69 69 69 69 68 68 69 69 69 69 70 69 70 70 70 70 71 71 71 71 71 71 71 71 71 71 70 71 70 70 70 70 70 70 69 69 69 69 69 70 69 69 69 69 68 68 68 68 67 67 68 69 68 67 68 67 67 62 62 62 61 61 61 62 61 66 66 63 62 64 63 63 64 63 63 63 63 63 62 61
68 68 68 69 69 68 68 68 68 68 68 69 69 68 69 70 69 69 69 70 70 71 70 70 70 70 71 71 70 68 67 67 67 68 70 69 70 70 69 69 69 69 69 69 69 70 69 69 69 69 69 68 68 68 68 68 69 69 67 67 66 61 61 61 61 63 62 63 64 62 64 63 64 63 62 62 62 62 62 62 62 62 62 62 59
67 67 67 68 68 68 68 68 68 68 68 69 69 69 70 70 68 69 70 70 71 70 70 69 71 68 71 69 67 68 66 65 67 71 68 69 69 70 69 69 69 69 69 69 70 70 70 69 69 69 69 69 68 64 63 66 68 69 67 66 62 61 61 61 62 63 63 62 63 64 64 63 62 62 62 62 61 62 61 60 60 61 61 61 60
66 66 67 67 67 67 68 68 68 68 69 69 69 70 69 69 68 69 70 71 71 71 69 69 67 68 69 68 68 67 65 66 66 68 69 70 69 69 69 69 69 69 69 69 69 70 70 69 69 69 69 69 64 62 62 60 61 67 66 62 61 61 62 62 62 63 62 62 62 65 63 63 63 62 62 61 61 61 60 61 61 61 61 61 61
65 66 66 67 67 67 67 67 68 68 69 69 69 68 68 68 68 68 68 68 68 69 67 66 66 66 67 67 67 67 67 64 71 72 69 67 67 70 69 69 69 69 69 69 70 70 69 70 69 70 67 65 64 62 62 61 59 61 62 61 61 61 62 62 62 62 62 64 61 64 63 63 63 62 62 62 61 61 61 61 59 61 60 61 61
66 66 66 66 66 66 67 67 67 68 68 69 68 68 68 67 67 67 67 67 67 65 65 65 65 66 66 67 66 67 66 65 65 66 65 65 65 64 65 65 65 65 69 63 63 64 66 63 63 65 64 65 64 63 62 62 61 61 62 61 61 61 62 62 62 62 62 61 62 64 63 63 63 62 62 61 61 61 61 61 60 60 60 60 60
66 65 66 66 66 67 67 67 67 67 67 67 68 69 68 66 66 66 67 67 66 65 65 65 66 66 66 67 68 66 66 64 65 65 65 65 65 64 63 64 64 64 68 65 63 64 64 64 65 65 65 65 65 64 62 64 62 61 62 62 61 61 61 61 61 62 61 61 63 64 65 63 63 62 62 62 62 61 60 60 60 61 60 60 60
66 65 66 67 67 67 67 67 67 67 67 67 67 67 66 66 66 67 66 65 65 64 64 64 65 66 67 67 67 65 65 65 65 65 65 65 65 64 63 63 62 63 66 65 64 64 64 65 65 65 64 65 65 65 64 63 62 62 62 62 61 61 61 61 61 61 61 61 64 64 64 63 63 63 62 62 62 61 60 59 61 61 59 60 59
65 66 67 68 68 67 67 67 67 66 66 66 66 66 66 66 67 69 67 67 66 64 64 64 65 66 67 67 67 65 65 64 64 64 64 64 64 64 63 62 62 63 64 64 63 62 64 65 64 64 65 65 65 65 64 63 63 62 62 63 62 61 61 61 61 61 61 62 63 64 64 64 63 63 63 62 61 61 61 60 62 61 59 60 61
65 66 67 68 68 67 66 66 66 66 66 66 66 65 65 66 67 66 66 69 65 65 65 65 65 65 66 67 67 65 65 64 64 64 64 64 63 64 63 63 62 63 62 63 63 62 62 63 64 65 64 65 64 65 64 63 62 63 62 62 62 61 60 60 60 61 61 61 62 64 64 64 64 65 63 62 61 61 60 59 61 61 61 61 58
66 66 67 67 68 67 67 66 66 66 66 66 65 65 64 65 66 66 67 68 66 65 65 65 65 65 65 66 67 65 65 65 64 64 64 64 64 63 64 64 63 62 62 62 62 61 61 62 63 64 65 65 65 64 64 63 62 62 61 62 62 61 60 60 60 61 61 61 62 63 64 65 65 66 65 62 62 61 60 60 60 62 62 61 59
66 66 66 67 68 67 67 66 66 67 66 65 65 65 66 65 67 67 67 66 66 66 66 65 65 65 65 66 66 66 65 65 65 65 64 64 63 63 64 64 63 63 63 62 61 61 61 61 62 63 64 64 64 64 63 63 62 61 61 62 62 61 60 60 60 61 61 61 61 62 64 65 65 66 65 65 63 61 60 61 60 61 61 61 59
66 66 67 68 68 68 68 67 66 67 66 66 66 66 66 66 67 66 66 66 67 66 66 67 67 66 65 65 65 65 66 65 64 65 66 65 64 64 64 64 64 63 63 63 62 61 61 61 62 62 63 63 64 64 64 62 61 61 61 61 61 61 60 60 60 61 61 61 61 61 63 64 66 65 64 65 64 62 61 62 61 61 61 60 59
67 67 68 68 68 68 68 67 68 67 67 67 67 66 66 67 66 66 66 67 67 67 66 66 67 66 65 65 65 65 65 64 64 64 66 66 66 64 64 64 64 64 63 63 63 62 62 62 62 62 62 63 63 63 63 61 61 61 61 61 61 61 61 60 60 60 61 61 61 61 61 63 62 64 65 64 65 64 62 63 62 61 62 58 59
67 67 68 68 68 68 68 68 68 67 67 67 67 66 66 66 65 65 67 67 66 67 67 65 65 65 65 65 65 66 65 65 65 64 65 64 65 65 64 64 64 64 63 63 63 62 62 61 62 61 64 62 62 63 62 61 61 61 61 61 60 60 61 60 60 60 61 61 61 61 61 61 62 62 63 64 65 65 64 65 63 60 61 60 60
67 67 67 68 68 68 68 67 67 66 67 67 67 66 65 66 66 66 66 66 65 65 65 65 65 65 65 65 65 66 67 66 65 64 64 64 64 65 65 65 64 64 63 63 63 62 61 62 61 61 61 61 61 62 62 61 61 61 60 62 62 63 62 61 60 60 61 60 61 61 61 61 61 61 62 62 65 65 65 66 62 60 59 60 60
66 66 67 68 67 67 68 67 67 66 67 66 66 66 66 65 66 68 65 65 65 64 65 65 66 65 65 65 64 65 65 65 65 64 64 64 64 65 65 65 64 63 63 63 63 63 61 62 62 61 61 61 61 61 61 61 61 61 61 62 62 63 63 62 62 60 60 60 61 61 61 61 61 61 63 61 60 62 64 65 64 63 60 60 61
67 67 67 67 67 67 68 67 67 66 66 66 65 65 65 66 66 67 66 65 65 65 65 65 65 65 65 65 64 64 65 65 65 65 65 64 64 64 64 64 64 64 63 62 62 63 62 63 62 63 62 61 61 61 61 61 61 61 61 61 62 62 63 63 63 62 62 61 60 61 61 61 62 64 62 60 60 60 64 65 64 63 63 62 61
65 65 65 66 65 65 66 67 66 66 66 66 65 65 65 65 65 65 67 65 65 65 65 64 65 65 65 65 64 64 65 64 64 65 65 65 64 63 63 64 65 65 64 62 63 62 62 62 62 62 62 62 61 61 61 61 61 61 60 60 61 61 62 62 63 64 62 61 60 60 61 61 61 62 62 61 60 60 61 64 64 63 62 63 63
64 65 65 66 65 65 64 65 66 66 65 65 65 65 64 64 63 64 65 65 64 65 65 65 65 64 64 65 64 65 65 64 65 65 65 65 65 64 64 63 64 65 65 64 63 62 62 62 62 62 62 63 62 61 62 61 61 60 60 60 61 61 62 62 63 63 62 62 61 62 60 60 60 61 61 61 60 60 60 61 61 61 60 63 63
65 65 64 64 64 64 64 64 66 66 66 65 65 64 63 63 62 63 64 64 64 64 64 65 65 64 65 64 64 63 64 64 64 64 65 65 65 64 63 62 63 64 65 65 64 63 63 62 62 62 62 62 63 62 61 61 60 60 60 60 61 60 61 62 62 62 63 62 62 62 61 60 60 60 61 61 60 60 60 60 62 61 59 62 63
65 65 65 65 65 65 65 65 66 65 64 63 63 63 63 63 63 62 63 63 64 64 64 64 64 64 64 64 64 64 63 63 64 63 63 64 63 61 61 62 62 63 64 65 65 64 64 64 63 62 62 61 62 61 61 61 60 60 59 60 60 61 62 62 62 62 62 63 63 62 62 61 60 60 60 60 60 59 59 59 60 61 60 61 63
62 63 64 64 64 64 63 63 63 63 64 64 64 63 63 62 61 62 62 63 64 64 64 64 64 65 64 64 64 64 64 63 64 64 64 63 63 64 64 64 64 64 64 64 64 65 64 64 63 62 63 62 62 62 61 60 59 59 58 56 57 60 61 61 61 61 62 62 63 62 62 61 60 60 60 60 60 59 59 59 60 60 60 60 61
60 61 61 61 61 61 61 61 61 62 62 64 64 63 63 63 63 63 63 63 65 65 64 64 65 64 64 64 64 64 64 63 63 64 63 63 64 65 65 65 65 65 64 64 64 64 65 65 64 62 62 62 62 62 62 61 60 59 58 57 56 55 56 59 61 61 62 62 62 62 62 62 61 60 60 60 59 59 59 59 59 60 60 60 60
59 59 59 59 60 60 60 60 61 61 61 63 63 63 64 64 64 64 64 64 64 66 65 65 65 64 65 64 64 64 64 64 64 64 63 63 62 63 64 64 64 63 63 63 63 64 64 64 64 63 63 61 62 62 63 63 62 59 56 56 56 55 55 56 57 59 61 61 62 62 63 63 62 61 61 60 59 59 59 59 59 60 60 60 60
58 58 59 59 59 59 59 60 60 60 61 61 62 62 63 63 63 63 63 62 63 64 63 63 63 64 64 64 64 65 65 64 64 64 64 64 64 63 63 62 62 62 62 62 63 63 63 63 63 63 63 62 61 61 62 63 62 62 60 57 55 55 55 55 55 57 59 60 61 61 62 62 62 62 61 60 60 59 59 59 59 60 60 60 60
57 58 58 59 59 60 59 59 59 60 60 60 61 61 61 61 61 61 61 60 61 61 61 62 62 62 62 63 63 65 64 64 64 64 64 64 63 63 63 62 62 62 62 62 63 63 62 62 62 63 62 62 61 61 60 62 62 62 62 61 60 57 55 55 55 54 58 60 60 61 61 62 62 62 61 60 60 59 59 59 59 59 60 60 61
56 57 57 57 57 58 58 58 58 59 60 59 60 60 59 59 60 60 60 60 60 61 62 62 62 62 62 63 63 63 64 64 63 63 63 63 63 62 62 62 62 62 63 62 63 63 63 63 63 63 63 62 62 60 60 60 61 62 62 62 62 61 60 57 55 55 55 58 60 60 61 62 62 62 61 61 60 59 59 59 59 59 60 60 61
56 56 57 57 57 57 57 57 58 58 59 59 59 59 58 58 58 59 59 59 59 60 60 60 60 61 60 62 62 62 63 64 63 63 63 64 64 64 64 63 63 63 64 63 62 62 63 64 64 64 64 63 62 61 61 61 60 60 62 62 62 62 61 60 59 57 56 55 57 61 61 62 62 62 62 61 61 60 59 60 59 59 59 60 61
55 55 56 56 57 57 57 57 57 57 58 58 58 58 59 58 58 58 57 58 59 59 59 58 58 59 59 60 61 61 61 62 62 62 62 63 64 64 64 63 63 63 63 63 63 63 63 63 63 63 63 63 63 62 61 61 61 60 60 60 61 60 60 60 60 59 57 55 55 58 59 61 62 62 62 62 62 61 60 60 60 59 59 60 60
54 55 54 55 55 55 56 56 56 56 57 57 57 56 56 57 56 56 56 56 57 57 56 56 57 57 57 57 59 58 58 59 60 61 60 61 62 63 64 63 63 63 63 63 63 63 63 63 63 64 64 63 63 62 62 62 62 61 61 60 60 60 60 59 59 59 58 57 55 56 58 58 58 60 61 61 61 62 61 61 61 60 59 59 60
53 53 53 53 54 54 54 54 54 54 54 55 56 56 55 55 55 55 55 55 55 55 54 54 55 55 55 55 56 57 57 58 58 59 59 60 61 62 63 63 63 63 63 63 62 62 63 63 64 64 64 63 63 62 62 62 62 62 62 61 61 60 59 58 58 58 58 56 56 56 57 59 59 59 60 61 61 61 62 61 61 61 60 60 60